Time,TemperatureF,DewpointF,PressureIn,WindDirection,WindDirectionDegrees,WindSpeedMPH,WindSpeedGustMPH,Humidity,HourlyPrecipIn,Conditions,Clouds,dailyrainin,SoftwareType,DateUTC
2013-10-22 00:02:00,43.5,34.0,29.97,NW,322,1.0,3.0,69,0.00,,,0.00,weatherlink.com 1.10,2013-10-22 04:02:00,
2013-10-22 00:17:00,42.9,34.0,29.97,NW,308,3.0,4.0,70,0.00,,,0.00,weatherlink.com 1.10,2013-10-22 04:17:00,
2013-10-22 00:32:00,42.8,34.0,29.97,SW,234,0.0,4.0,72,0.00,,,0.00,weatherlink.com 1.10,2013-10-22 04:32:00,
2013-10-22 00:47:00,42.6,34.0,29.98,NW,305,1.0,4.0,71,0.00,,,0.00,weatherlink.com 1.10,2013-10-22 04:47:00,
2013-10-22 01:02:00,42.0,33.0,29.98,NNE,25,1.0,7.0,70,0.00,,,0.00,weatherlink.com 1.10,2013-10-22 05:02:00,
2013-10-22 01:17:00,40.9,32.0,29.99,NW,325,1.0,1.0,70,0.00,,,0.00,weatherlink.com 1.10,2013-10-22 05:17:00,
2013-10-22 01:32:00,39.9,32.0,29.99,West,259,0.0,2.0,73,0.00,,,0.00,weatherlink.com 1.10,2013-10-22 05:32:00,
2013-10-22 01:47:00,38.6,31.0,30.00,ENE,68,0.0,0.0,73,0.00,,,0.00,weatherlink.com 1.10,2013-10-22 05:47:00,
2013-10-22 02:02:00,37.2,30.0,30.00,ENE,68,0.0,0.0,75,0.00,,,0.00,weatherlink.com 1.10,2013-10-22 06:02:00,
2013-10-22 02:18:00,35.9,30.0,30.00,ENE,68,0.0,0.0,79,0.00,,,0.00,weatherlink.com 1.10,2013-10-22 06:18:00,
2013-10-22 02:33:00,34.9,29.0,30.00,ENE,68,0.0,0.0,80,0.00,,,0.00,weatherlink.com 1.10,2013-10-22 06:33:00,
2013-10-22 02:48:00,34.8,30.0,30.00,ENE,68,0.0,0.0,81,0.00,,,0.00,weatherlink.com 1.10,2013-10-22 06:48:00,
2013-10-22 03:03:00,34.7,30.0,30.00,ENE,68,0.0,0.0,82,0.00,,,0.00,weatherlink.com 1.10,2013-10-22 07:03:00,
2013-10-22 03:18:00,34.5,30.0,30.00,ENE,68,0.0,0.0,82,0.00,,,0.00,weatherlink.com 1.10,2013-10-22 07:18:00,
2013-10-22 03:33:00,33.9,30.0,30.00,ENE,68,0.0,0.0,84,0.00,,,0.00,weatherlink.com 1.10,2013-10-22 07:33:00,
2013-10-22 03:48:00,33.0,28.0,30.00,ENE,68,0.0,0.0,83,0.00,,,0.00,weatherlink.com 1.10,2013-10-22 07:48:00,
2013-10-22 04:03:00,32.1,28.0,30.00,ENE,68,0.0,0.0,86,0.00,,,0.00,weatherlink.com 1.10,2013-10-22 08:03:00,
2013-10-22 04:18:00,31.3,28.0,29.99,ENE,68,0.0,0.0,87,0.00,,,0.00,weatherlink.com 1.10,2013-10-22 08:18:00,
2013-10-22 04:33:00,31.1,28.0,29.99,ENE,68,0.0,0.0,88,0.00,,,0.00,weatherlink.com 1.10,2013-10-22 08:33:00,
2013-10-22 04:48:00,30.6,28.0,30.00,ENE,68,0.0,0.0,89,0.00,,,0.00,weatherlink.com 1.10,2013-10-22 08:48:00,
2013-10-22 05:03:00,30.8,28.0,30.00,ENE,68,0.0,0.0,90,0.00,,,0.00,weatherlink.com 1.10,2013-10-22 09:03:00,
2013-10-22 05:18:00,31.3,29.0,30.00,ENE,68,0.0,0.0,90,0.00,,,0.00,weatherlink.com 1.10,2013-10-22 09:18:00,
2013-10-22 05:33:00,31.6,29.0,30.00,ENE,68,0.0,0.0,90,0.00,,,0.00,weatherlink.com 1.10,2013-10-22 09:33:00,
2013-10-22 05:48:00,31.7,29.0,30.00,ENE,68,0.0,0.0,89,0.00,,,0.00,weatherlink.com 1.10,2013-10-22 09:48:00,
2013-10-22 06:03:00,31.5,29.0,30.00,ENE,68,0.0,0.0,90,0.00,,,0.00,weatherlink.com 1.10,2013-10-22 10:03:00,
2013-10-22 06:18:00,32.0,30.0,30.00,ENE,68,0.0,0.0,91,0.00,,,0.00,weatherlink.com 1.10,2013-10-22 10:18:00,
2013-10-22 06:33:00,32.7,30.0,30.00,ENE,68,0.0,0.0,88,0.00,,,0.00,weatherlink.com 1.10,2013-10-22 10:33:00,
2013-10-22 06:48:00,32.0,29.0,30.00,ENE,68,0.0,0.0,88,0.00,,,0.00,weatherlink.com 1.10,2013-10-22 10:48:00,
2013-10-22 07:04:00,32.9,30.0,30.00,ENE,68,0.0,0.0,88,0.00,,,0.00,weatherlink.com 1.10,2013-10-22 11:04:00,
2013-10-22 07:18:00,32.7,30.0,30.00,ENE,68,0.0,0.0,88,0.00,,,0.00,weatherlink.com 1.10,2013-10-22 11:18:00,
2013-10-22 07:33:00,31.6,29.0,30.00,ENE,64,0.0,0.0,89,0.00,,,0.00,weatherlink.com 1.10,2013-10-22 11:33:00,
2013-10-22 07:48:00,32.7,29.0,30.01,WNW,287,0.0,1.0,87,0.00,,,0.00,weatherlink.com 1.10,2013-10-22 11:48:00,
2013-10-22 08:03:00,33.6,29.0,30.01,SE,132,0.0,0.0,83,0.00,,,0.00,weatherlink.com 1.10,2013-10-22 12:03:00,
2013-10-22 08:18:00,33.7,30.0,30.00,ESE,105,0.0,0.0,85,0.00,,,0.00,weatherlink.com 1.10,2013-10-22 12:18:00,
2013-10-22 08:33:00,33.4,29.0,30.00,SW,226,0.0,2.0,85,0.00,,,0.00,weatherlink.com 1.10,2013-10-22 12:33:00,
2013-10-22 08:48:00,35.2,31.0,30.01,SW,222,0.0,0.0,83,0.00,,,0.00,weatherlink.com 1.10,2013-10-22 12:48:00,
2013-10-22 09:03:00,37.9,32.0,30.01,SW,225,0.0,0.0,80,0.00,,,0.00,weatherlink.com 1.10,2013-10-22 13:03:00,
2013-10-22 09:18:00,40.3,32.0,30.01,SE,145,0.0,2.0,72,0.00,,,0.00,weatherlink.com 1.10,2013-10-22 13:18:00,
2013-10-22 09:33:00,42.5,33.0,30.02,SSW,201,0.0,1.0,68,0.00,,,0.00,weatherlink.com 1.10,2013-10-22 13:33:00,
2013-10-22 09:48:00,43.9,32.0,30.02,ENE,77,1.0,2.0,63,0.00,,,0.00,weatherlink.com 1.10,2013-10-22 13:48:00,
2013-10-22 10:03:00,44.9,33.0,30.02,WSW,246,1.0,1.0,64,0.00,,,0.00,weatherlink.com 1.10,2013-10-22 14:03:00,
2013-10-22 10:18:00,45.2,31.0,30.02,NE,38,0.0,2.0,58,0.00,,,0.00,weatherlink.com 1.10,2013-10-22 14:18:00,
2013-10-22 10:33:00,45.8,32.0,30.02,ESE,106,1.0,2.0,58,0.00,,,0.00,weatherlink.com 1.10,2013-10-22 14:33:00,
2013-10-22 10:48:00,46.3,31.0,30.01,WSW,250,0.0,4.0,56,0.00,,,0.00,weatherlink.com 1.10,2013-10-22 14:48:00,
2013-10-22 11:03:00,47.4,30.0,30.00,SSE,148,2.0,4.0,52,0.00,,,0.00,weatherlink.com 1.10,2013-10-22 15:03:00,
2013-10-22 11:34:00,49.4,32.0,30.00,East,97,1.0,4.0,52,0.00,,,0.00,weatherlink.com 1.10,2013-10-22 15:34:00,
2013-10-22 11:49:00,50.0,32.0,29.99,NNE,22,3.0,4.0,50,0.00,,,0.00,weatherlink.com 1.10,2013-10-22 15:49:00,
2013-10-22 12:04:00,50.8,31.0,29.98,SE,132,6.0,8.0,47,0.00,,,0.00,weatherlink.com 1.10,2013-10-22 16:04:00,
2013-10-22 12:19:00,50.5,30.0,29.97,East,89,4.0,4.0,45,0.00,,,0.00,weatherlink.com 1.10,2013-10-22 16:19:00,
2013-10-22 12:34:00,50.7,31.0,29.96,ESE,103,2.0,5.0,47,0.00,,,0.00,weatherlink.com 1.10,2013-10-22 16:34:00,
2013-10-22 12:49:00,50.7,31.0,29.97,SE,131,2.0,2.0,47,0.00,,,0.00,weatherlink.com 1.10,2013-10-22 16:49:00,
2013-10-22 13:04:00,50.8,30.0,29.96,ESE,105,1.0,5.0,45,0.00,,,0.00,weatherlink.com 1.10,2013-10-22 17:04:00,
2013-10-22 13:19:00,51.1,31.0,29.95,SE,142,3.0,4.0,46,0.00,,,0.00,weatherlink.com 1.10,2013-10-22 17:19:00,
2013-10-22 13:34:00,51.4,33.0,29.94,ESE,108,3.0,8.0,49,0.00,,,0.00,weatherlink.com 1.10,2013-10-22 17:34:00,
2013-10-22 13:49:00,52.6,32.0,29.93,South,174,1.0,3.0,46,0.00,,,0.00,weatherlink.com 1.10,2013-10-22 17:49:00,
2013-10-22 14:04:00,51.9,32.0,29.93,SE,129,0.0,6.0,46,0.00,,,0.00,weatherlink.com 1.10,2013-10-22 18:04:00,
2013-10-22 14:19:00,52.2,32.0,29.91,SSE,153,1.0,5.0,47,0.00,,,0.00,weatherlink.com 1.10,2013-10-22 18:19:00,
2013-10-22 14:34:00,51.6,31.0,29.91,ESE,122,2.0,7.0,45,0.00,,,0.00,weatherlink.com 1.10,2013-10-22 18:34:00,
2013-10-22 14:49:00,51.8,32.0,29.91,WNW,283,1.0,4.0,47,0.00,,,0.00,weatherlink.com 1.10,2013-10-22 18:49:00,
2013-10-22 15:04:00,51.0,31.0,29.89,ESE,104,2.0,6.0,47,0.00,,,0.00,weatherlink.com 1.10,2013-10-22 19:04:00,
2013-10-22 15:19:00,50.2,32.0,29.89,ESE,111,0.0,3.0,49,0.00,,,0.00,weatherlink.com 1.10,2013-10-22 19:19:00,
2013-10-22 15:34:00,50.0,32.0,29.88,ENE,71,0.0,2.0,51,0.00,,,0.00,weatherlink.com 1.10,2013-10-22 19:34:00,
2013-10-22 15:49:00,50.5,33.0,29.88,ESE,108,2.0,3.0,51,0.00,,,0.00,weatherlink.com 1.10,2013-10-22 19:49:00,
2013-10-22 16:04:00,50.5,33.0,29.88,NE,38,1.0,6.0,51,0.00,,,0.00,weatherlink.com 1.10,2013-10-22 20:04:00,
2013-10-22 16:19:00,50.5,33.0,29.87,SE,143,0.0,4.0,51,0.00,,,0.00,weatherlink.com 1.10,2013-10-22 20:19:00,
2013-10-22 16:34:00,50.6,33.0,29.86,South,185,0.0,3.0,52,0.00,,,0.00,weatherlink.com 1.10,2013-10-22 20:34:00,
2013-10-22 16:49:00,50.5,33.0,29.86,East,89,0.0,3.0,52,0.00,,,0.00,weatherlink.com 1.10,2013-10-22 20:49:00,
2013-10-22 17:04:00,49.9,33.0,29.86,ESE,114,0.0,2.0,53,0.00,,,0.00,weatherlink.com 1.10,2013-10-22 21:04:00,
2013-10-22 17:19:00,49.3,34.0,29.85,ESE,122,4.0,4.0,56,0.00,,,0.00,weatherlink.com 1.10,2013-10-22 21:19:00,
2013-10-22 17:34:00,48.7,34.0,29.85,South,185,1.0,3.0,58,0.00,,,0.00,weatherlink.com 1.10,2013-10-22 21:34:00,
2013-10-22 17:49:00,48.3,34.0,29.84,SE,126,1.0,4.0,58,0.00,,,0.00,weatherlink.com 1.10,2013-10-22 21:49:00,
2013-10-22 18:04:00,47.5,36.0,29.83,SSE,150,1.0,4.0,65,0.00,,,0.00,weatherlink.com 1.10,2013-10-22 22:04:00,
2013-10-22 18:19:00,46.3,37.0,29.83,East,79,0.0,1.0,71,0.00,,,0.00,weatherlink.com 1.10,2013-10-22 22:19:00,
2013-10-22 18:34:00,45.7,39.0,29.82,East,79,0.0,1.0,77,0.00,,,0.00,weatherlink.com 1.10,2013-10-22 22:34:00,
2013-10-22 18:49:00,44.9,38.0,29.82,East,79,0.0,0.0,76,0.00,,,0.00,weatherlink.com 1.10,2013-10-22 22:49:00,
2013-10-22 19:04:00,44.9,39.0,29.81,East,96,0.0,1.0,79,0.00,,,0.00,weatherlink.com 1.10,2013-10-22 23:04:00,
2013-10-22 19:19:00,44.3,39.0,29.81,East,96,0.0,0.0,82,0.00,,,0.00,weatherlink.com 1.10,2013-10-22 23:19:00,
2013-10-22 19:35:00,44.1,40.0,29.82,East,96,0.0,1.0,86,0.00,,,0.00,weatherlink.com 1.10,2013-10-22 23:35:00,
2013-10-22 19:50:00,44.0,40.0,29.82,East,96,0.0,0.0,87,0.00,,,0.00,weatherlink.com 1.10,2013-10-22 23:50:00,
2013-10-22 20:05:00,43.9,40.0,29.82,East,96,0.0,0.0,86,0.00,,,0.00,weatherlink.com 1.10,2013-10-23 00:05:00,
2013-10-22 20:20:00,43.8,39.0,29.82,East,96,0.0,0.0,84,0.00,,,0.00,weatherlink.com 1.10,2013-10-23 00:20:00,
2013-10-22 20:35:00,43.8,38.0,29.83,East,96,0.0,0.0,80,0.00,,,0.00,weatherlink.com 1.10,2013-10-23 00:35:00,
2013-10-22 20:50:00,44.2,38.0,29.83,East,96,0.0,1.0,78,0.00,,,0.00,weatherlink.com 1.10,2013-10-23 00:50:00,
2013-10-22 21:05:00,44.6,39.0,29.82,East,96,0.0,0.0,81,0.00,,,0.00,weatherlink.com 1.10,2013-10-23 01:05:00,
2013-10-22 21:20:00,44.3,40.0,29.81,East,96,0.0,1.0,85,0.00,,,0.00,weatherlink.com 1.10,2013-10-23 01:20:00,
2013-10-22 21:35:00,43.9,40.0,29.81,East,96,0.0,0.0,85,0.00,,,0.00,weatherlink.com 1.10,2013-10-23 01:35:00,
2013-10-22 21:50:00,43.8,39.0,29.80,East,96,0.0,0.0,83,0.00,,,0.00,weatherlink.com 1.10,2013-10-23 01:50:00,
2013-10-22 22:05:00,44.1,39.0,29.79,East,96,0.0,0.0,82,0.00,,,0.00,weatherlink.com 1.10,2013-10-23 02:05:00,
2013-10-22 22:20:00,44.4,39.0,29.80,SSE,165,0.0,0.0,81,0.00,,,0.00,weatherlink.com 1.10,2013-10-23 02:20:00,
2013-10-22 22:35:00,44.3,39.0,29.80,NNE,13,0.0,0.0,82,0.00,,,0.00,weatherlink.com 1.10,2013-10-23 02:35:00,
2013-10-22 22:50:00,43.7,40.0,29.79,ESE,110,0.0,0.0,87,0.01,,,0.01,weatherlink.com 1.10,2013-10-23 02:50:00,
2013-10-22 23:05:00,43.3,40.0,29.78,ESE,123,0.0,0.0,89,0.02,,,0.02,weatherlink.com 1.10,2013-10-23 03:05:00,
2013-10-22 23:20:00,43.2,41.0,29.77,ESE,123,0.0,0.0,91,0.02,,,0.02,weatherlink.com 1.10,2013-10-23 03:20:00,
2013-10-22 23:35:00,43.2,41.0,29.77,ESE,123,0.0,0.0,92,0.01,,,0.02,weatherlink.com 1.10,2013-10-23 03:35:00,
2013-10-22 23:50:00,43.1,41.0,29.76,SE,125,0.0,0.0,92,0.01,,,0.02,weatherlink.com 1.10,2013-10-23 03:50:00,